Location: Rounton
(54.4000°N, 1.3500°W)
Time: 18:38:04
(UTC+00:00)

Vanguard 2 Rocket - Visible Passes

Search period start: 06 December 2021 00:00
Search period end: 16 December 2021 00:00
Orbit: 555 x 3324 km, 32.9° (Epoch: 06 December)

Date Brightness Start Highest point End Pass type
(mag) Time Alt. Az. Time Alt. Az. Time Alt. Az.
06 Dec 9.4 17:59:44 10° S 18:01:42 11° SSE 18:03:55 10° SE visible
06 Dec 9.5 20:08:36 10° SW 20:11:44 16° SSW 20:11:44 16° SSW visible
07 Dec 9.4 19:10:15 10° SSW 19:14:01 15° S 19:15:17 14° SSE visible
08 Dec 9.4 18:12:42 10° S 18:14:42 11° SSE 18:16:58 10° SSE visible
08 Dec 9.7 20:22:54 10° SSW 20:24:39 13° SSW 20:24:39 13° SSW visible
09 Dec 9.5 19:24:19 10° SSW 19:27:10 13° S 19:28:16 12° S visible
10 Dec 9.4 18:26:51 10° S 18:27:49 10° S 18:28:51 10° SSE visible
